Location: Albuquerque Trailhead
(34.7934°N, 106.3736°W)
Time: 16:55:58
(UTC+00:00)

POLYITAN 1 - Pass Details

Date: 20 April 2024
Orbit: 552 x 570 km, 98.1° (Epoch: 20 May)

Event Time Altitude Azimuth Distance (km) Brightness Sun altitude
Rises 11:25:17 0° 350° (N) 2,791 ? -12.7°
Reaches altitude 10° 11:28:14 10° 326° (NNW) 1,889 ? -12.2°
Maximum altitude 11:30:31 15° 293° (WNW) 1,605 ? -11.7°
Enters shadow 11:31:36 13° 275° (W) 1,673 ? -11.5°
